#timestamp,LO_Frequency,Hit,StdDev 
1609142415.5,286047000.3,Y
1609142435.4,286047000.9,P
1609142455.2,286047001.1,P
1609142475.1,286047001.1,P
1609142476.0,286047001.1,Y
1609142495.8,286046998.7,P
1609142515.6,286046998.7,N
1609142535.5,286046998.5,N
1609142555.3,286046998.3,N
1609142575.1,286046998.6,N
1609142625.9,286046998.5,E
1609142635.8,286046998.2,N
1609142655.7,286047001.0,P
1609142675.5,286047000.9,N
1609142695.3,286047001.0,N
1609142715.2,286047000.6,N
1609142735.0,286047000.2,N
1609142735.9,286047000.2,N
1609142755.8,286047000.6,N
1609142775.6,286047000.6,N
1609142795.4,286047000.4,N
1609142815.3,286046999.7,N
1609142835.1,286047000.2,N
1609142855.8,286047000.0,N
1609142875.7,286046999.9,N
1609142895.5,286047000.3,N
1609142915.4,286047002.8,Y
1609142935.2,286047000.6,P
1609142955.0,286047000.6,P
1609142955.9,286047000.6,P
1609142975.8,286047000.9,Y
1609142995.6,286047000.8,P
1609143015.5,286047000.8,P
1609143035.3,286047000.6,P
1609143055.1,286046998.1,Y
1609143075.9,286046998.8,P
1609143095.7,286046998.3,N
1609143115.5,286046998.5,N
1609143135.4,286046998.2,N
1609143155.2,286046998.1,N
1609143175.1,286046998.5,N
1609143176.0,286046998.5,N
1609143195.8,286047001.0,N
1609143215.6,286046998.1,N
1609143235.5,286047001.1,N
1609143255.3,286047000.5,N
1609143275.1,286047001.2,N
1609143295.9,286047000.6,N
1609143315.7,286047000.8,N
1609143335.6,286047000.8,N
1609143355.4,286047000.3,N
1609143375.2,286047000.4,N
1609143395.1,286047000.3,N
1609143396.0,286047000.3,N
1609143415.8,286047001.0,N
1609143435.6,286047000.9,N
1609143455.5,286047000.6,N
1609143475.3,286047000.1,N
1609143495.2,286047000.2,N
1609143515.9,286047000.2,N
1609143535.7,286047000.4,N
1609143555.6,286047000.1,N
1609143575.4,286047000.2,N
1609143595.2,286047002.7,N
1609143615.1,286047002.2,N
1609143616.0,286047002.2,N
1609143635.8,286047002.7,N
1609143655.7,286047002.7,N
1609143675.5,286047002.6,N
1609143695.3,286047001.6,N
1609143715.2,286047002.3,N
1609143735.0,286047002.1,N
1609143735.9,286047002.1,N
1609143755.7,286047002.6,N
1609143775.6,286047002.0,N
1609143795.4,286047001.5,N
1609143815.3,286047004.3,Y
1609143835.1,286047002.6,P
1609143855.8,286047002.8,P
1609143875.7,286047002.8,P
1609143895.5,286047002.1,Y
1609143915.4,286046999.0,P
1609143935.2,286046999.3,N
1609143955.0,286046998.7,N
1609143955.9,286046998.7,N
1609143975.8,286046998.6,N
1609143995.6,286046999.5,N
1609144015.5,286046999.3,N
1609144035.3,286046998.8,N
1609144055.1,286046998.7,N
1609144075.9,286046998.9,N
1609144095.7,286046999.5,N
1609144115.5,286046998.7,N
1609144135.4,286046998.3,N
1609144155.2,286046998.3,N
1609144175.1,286046998.5,N
1609144176.0,286046998.5,N
1609144195.8,286046998.1,N
1609144215.6,286046998.8,N
1609144235.5,286046998.7,N
1609144255.3,286046998.7,N
1609144275.1,286046998.5,N
1609144295.9,286046998.5,N
1609144315.7,286046998.5,N
1609144335.6,286046998.6,N
1609144355.4,286046998.6,N
1609144375.2,286046998.2,N
1609144395.1,286046998.4,N
1609144396.0,286046998.4,N
1609144415.8,286046998.2,N
1609144435.7,286046998.5,N
1609144455.5,286046998.7,Y
1609144475.3,286046999.7,P
1609144495.2,286047002.8,P
1609144515.0,286047002.4,N
1609144515.9,286047002.4,N
1609144535.7,286047002.3,N
1609144555.6,286047002.4,N
1609144575.4,286047002.7,N
1609144595.3,286047002.6,N
1609144615.1,286047002.5,N
1609144616.0,286047002.5,N
1609144635.8,286047002.5,N
1609144655.7,286047002.4,N
1609144675.5,286047000.2,N
1609144695.3,286047002.7,N
1609144715.2,286047002.3,N
1609144735.0,286047000.2,N
1609144735.9,286047000.2,N
1609144755.8,286047002.6,N
1609144775.6,286047000.1,N
1609144795.4,286047000.1,N
1609144815.3,286047002.3,N
1609144835.1,286047000.1,N
1609144855.8,286046999.8,N
1609144875.7,286047002.5,N
1609144895.5,286047002.8,N
1609144915.4,286047002.8,N
1609144935.2,286047002.7,N
1609144955.0,286047002.8,N
1609144955.9,286047002.8,N
1609144975.8,286047002.2,N
1609144995.6,286047002.8,N
1609145015.4,286047002.0,N
1609145035.3,286047002.4,N
1609145055.1,286047002.4,N
1609145075.9,286047001.9,N
1609145095.7,286047002.2,N
1609145115.5,286047002.2,N
1609145135.4,286047002.5,N
1609145155.2,286047001.7,N
1609145175.0,286047002.1,N
1609145175.9,286047002.1,N
1609145195.8,286046999.7,N
1609145215.6,286047002.5,N
1609145235.5,286046999.8,N
1609145255.3,286047002.6,N
1609145275.1,286046999.8,N
1609145295.9,286047000.2,N
1609145315.7,286047002.8,N
1609145335.5,286047002.1,N
1609145355.4,286047002.7,N
1609145375.2,286046999.7,N
1609145395.1,286047002.4,N
1609145396.0,286047002.4,N
1609145415.8,286047002.0,N
1609145435.6,286047002.0,N
1609145455.5,286047002.0,N
1609145475.3,286047002.1,N
1609145495.1,286047002.5,N
1609145515.9,286047002.2,N
1609145535.7,286047001.4,N
1609145555.6,286047001.7,N
1609145575.4,286047001.7,N
1609145595.2,286047001.5,N
1609145615.1,286047003.9,Y
1609145616.0,286047003.9,P
1609145635.8,286047002.3,N
1609145655.7,286047002.4,N
1609145675.5,286047002.7,Y
1609145695.3,286046998.8,P
1609145715.2,286046996.5,N
1609145735.0,286046999.0,N
1609145735.9,286046999.0,N
1609145755.7,286046999.2,N
1609145775.6,286046999.4,N
1609145795.4,286046998.3,N
1609145815.3,286046998.4,N
1609145835.1,286046999.1,N
1609145855.8,286046998.5,N
1609145875.7,286046998.6,N
1609145895.5,286046998.5,N
1609145915.4,286046998.9,N
1609145935.2,286046998.2,N
1609145955.0,286046998.8,N
1609145955.9,286046998.8,N
1609145975.8,286047001.2,N
1609145995.6,286046998.2,N
